[[{"header":{"parameterUnit":"m.s-1","parameterCategory":1,"la1":30.2991,"la2":30.254,"lo1":-89.0895,"lo2":-89.0444,"dy":0.0017,"dx":0.0017,"nx":28,"ny":28,"refTime":"2024-12-05T09:00:00:Z","depth":0,"parameterNumber":2,"parameterNumberName":"U-component_of_WINDS"},"data":[0,0,0,0,0,0,0,0,0,0,0,0,0,0,0,0,0,0,0,0,0,0,0,0,0,0,0,0,0,0,0,0,0,0,0,0,0,0,0,0,0,0,0,0,0,0,0,0,0,0,0,0,0,0,0,0,0,0,-2.3377,-2.3378,0,-2.3436,-2.3436,-2.3437,-2.3367,-2.3364,-2.3361,-2.3359,-2.342,-2.3424,-2.3428,0,0,0,0,0,0,0,0,0,0,0,0,0,-2.3203,-2.3207,-2.3377,-2.3378,-2.3378,-2.3436,-2.3436,-2.3437,-2.3367,-2.3364,-2.3361,-2.3358,-2.3419,-2.3423,-2.3428,0,0,0,0,0,0,0,0,0,0,0,0,0,-2.3272,-2.3208,-2.3377,-2.335,-2.3348,-2.3435,-2.3436,-2.3437,-2.3368,-2.3364,-2.336,-2.3356,-2.3417,-2.3423,-2.3429,-2.3545,0,0,-2.3448,-2.345,0,0,0,0,0,0,0,0,-2.3268,-2.3279,-2.3353,-2.3352,-2.335,-2.339,-2.3397,-2.3474,-2.3369,-2.336,-2.3359,-2.3354,-2.3413,-2.3419,-2.3439,-2.3548,-2.3551,-2.3448,-2.3452,-2.3455,-2.3456,0,0,0,0,0,0,0,-2.3264,-2.3276,-2.34,-2.3355,-2.3353,-2.3335,-2.3341,-2.3412,-2.3408,-2.3361,-2.3356,-2.3364,-2.3412,-2.3433,-2.344,-2.3552,-2.3448,-2.3453,-2.3457,-2.346,-2.3758,-2.3762,0,0,0,0,0,0,-2.3262,-2.3272,-2.3398,-2.3402,-2.3299,-2.3341,-2.3348,-2.3381,-2.3407,-2.3407,-2.3367,-2.336,-2.3425,-2.3433,-2.3442,-2.3579,-2.3455,-2.346,-2.3464,-2.3753,-2.3759,-2.3763,0,0,0,0,0,0,-2.3259,-2.3274,-2.3396,-2.3336,-2.335,-2.3349,-2.3387,-2.3384,-2.3406,-2.3412,-2.3411,-2.339,-2.3422,-2.3433,-2.352,-2.358,-2.3463,-2.3469,-2.3748,-2.3755,-2.3761,-2.3855,0,0,0,0,0,0,-2.3254,-2.3273,-2.3318,-2.3337,-2.3353,-2.3473,-2.3391,-2.3388,-2.3417,-2.3408,-2.3433,-2.3433,-2.342,-2.3511,-2.3526,-2.3587,-2.3473,-2.3743,-2.3751,-2.3759,-2.3847,-2.3864,-2.3879,0,0,0,0,0,-2.3248,-2.3342,-2.332,-2.3336,-2.3409,-2.3477,-2.3486,-2.3468,-2.3422,-2.3466,-2.347,-2.3433,-2.3571,-2.352,-2.3537,-2.36,-2.3739,-2.3749,-2.3758,-2.384,-2.3861,-2.3879,0,0,0,0,0,0,-2.3331,-2.3345,-2.332,-2.3424,-2.345,-2.3465,-2.3521,-2.3492,-2.3532,-2.3522,-2.3498,-2.3505,-2.3597,-2.3607,-2.355,-2.3713,-2.3647,-2.3661,-2.3704,-2.3724,-2.374,-2.3736,-2.3478,0,0,0,0,0,-2.3361,-2.3415,-2.3424,-2.3514,-2.3528,-2.3523,-2.3552,-2.3535,-2.3561,-2.3572,-2.3582,-2.3609,-2.3658,-2.3691,-2.3737,-2.3847,-2.3851,-2.3899,-2.3915,-2.3928,-2.394,-2.3998,-2.4019,-2.3795,-2.3795,-2.3794,0,0,-2.3424,-2.3438,-2.3474,-2.3531,-2.355,-2.3606,-2.3532,-2.3595,-2.3637,-2.3582,-2.3664,-2.3672,-2.37,-2.3799,-2.3843,-2.381,-2.4003,-2.394,-2.3951,-2.3956,-2.401,-2.4032,-2.4051,-2.3801,-2.38,-2.3799,0,0,-2.3568,-2.3584,-2.3661,-2.368,-2.3708,-2.3704,-2.3722,-2.3741,-2.3745,-2.3826,-2.3786,-2.3834,-2.392,-2.3942,-2.3964,-2.4114,-2.4081,-2.4129,-2.4214,-2.4271,-2.4289,-2.4304,-2.4358,-2.4378,-2.4141,-2.4141,-2.4142,0,-2.3644,-2.3727,-2.3705,-2.377,-2.3796,-2.3748,-2.3825,-2.3845,-2.3887,-2.3906,-2.3868,-2.3974,-2.3989,-2.4092,-2.4129,-2.4148,-2.4168,-2.4127,-2.4288,-2.4303,-2.4318,-2.4369,-2.4389,-2.4147,-2.4146,-2.4146,-2.4145,0,-2.3818,-2.3876,-2.3935,-2.3976,-2.4008,-2.408,-2.4068,-2.4103,-2.4084,-2.4082,-2.4166,-2.4182,-2.423,-2.4253,-2.4235,-2.4353,-2.4332,-2.4292,-2.4225,-2.4345,-2.4393,-2.4412,-2.4155,-2.4153,-2.4152,-2.415,0,0,-2.4018,-2.4044,-2.4066,-2.4084,-2.411,-2.4155,-2.4223,-2.4269,-2.43,-2.433,-2.4387,-2.4459,-2.4422,-2.4447,-2.443,-2.448,-2.4598,-2.4434,-2.4434,-2.4464,-2.4729,-2.476,-2.4783,-2.4575,-2.4579,-2.4582,-2.4726,0,-2.4163,-2.4282,-2.4262,-2.4377,-2.443,-2.4384,-2.4443,-2.4466,-2.4466,-2.4511,-2.4511,-2.4563,-2.4509,-2.4524,-2.4571,-2.4574,-2.4651,-2.4563,-2.4628,-2.4631,-2.4624,-2.4807,-2.4841,-2.4976,-2.4745,-2.4748,-2.475,0,-2.4348,-2.4384,-2.4504,-2.4521,-2.4542,-2.4596,-2.4636,-2.468,-2.4704,-2.47,-2.4728,-2.4701,-2.4769,-2.47,-2.4793,-2.4734,-2.4759,-2.4764,-2.4769,-2.4775,-2.4699,-2.4819,-2.5019,-2.504,-2.4779,-2.4777,-2.4775,0,-2.4483,-2.4561,-2.4642,-2.4659,-2.468,-2.4719,-2.473,-2.475,-2.4778,-2.4813,-2.4831,-2.4874,-2.4897,-2.493,-2.4916,-2.4867,-2.5012,-2.4942,-2.5011,-2.5011,-2.5045,-2.5043,-2.5252,-2.506,-2.5059,-2.5059,-2.5058,0,-2.4647,-2.4722,-2.4703,-2.4753,-2.4836,-2.4813,-2.4895,-2.49,-2.4918,-2.4968,-2.493,-2.4978,-2.4955,-2.5002,-2.4991,-2.5069,-2.508,-2.5079,-2.5075,-2.5083,-2.5083,-2.51,-2.5091,-2.5064,-2.5063,-2.5062,-2.5061,0,-2.4812,-2.4802,-2.4888,-2.49,-2.4905,-2.4966,-2.4976,-2.5023,-2.5019,-2.5084,-2.5097,-2.5092,-2.5144,-2.5132,-2.519,-2.5182,-2.5281,-2.5265,-2.5273,-2.5269,-2.5339,-2.5333,-2.5567,-2.5597,-2.5385,-2.5387,-2.5389,0,-2.4918,-2.4975,-2.4993,-2.5024,-2.5037,-2.5087,-2.5116,-2.5094,-2.5125,-2.5156,-2.5199,-2.5248,-2.5285,-2.5371,-2.5372,-2.5415,-2.5401,-2.548,-2.5407,-2.5413,-2.5402,-2.54,-2.5405,-2.5495,-2.5497,-2.5499,-2.5501,0,-2.5107,-2.5099,-2.5141,-2.5182,-2.5217,-2.5248,-2.5276,-2.5303,-2.5283,-2.532,-2.5373,-2.5402,-2.546,-2.5509,-2.5548,-2.5559,-2.5527,-2.5523,-2.5541,-2.5551,-2.5553,-2.5553,-2.5313,-2.5518,-2.5517,-2.5515,-2.5514,-2.5514,-2.5246,-2.5294,-2.5314,-2.5362,-2.538,-2.5407,-2.5451,-2.5452,-2.5496,-2.5541,-2.5525,-2.5585,-2.5606,-2.5656,-2.5671,-2.5717,-2.5688,-2.5714,-2.5721,-2.5728,-2.5737,-2.5545,-2.5724,-2.5724,-2.5723,-2.5723,-2.5722,0,-2.5434,-2.5444,-2.5488,-2.5528,-2.5565,-2.5531,-2.5559,-2.5593,-2.5646,-2.5668,-2.5705,-2.5765,-2.5812,-2.5816,-2.5859,-2.5895,-2.5882,-2.5908,-2.5905,-2.5908,-2.5761,-2.5741,-2.5918,-2.5918,-2.5918,-2.5918,-2.5918,-2.5918,-2.5536,-2.5615,-2.5609,-2.5696,-2.5705,-2.5764,-2.5783,-2.5806,-2.5823,-2.5892,-2.593,-2.5932,-2.5947,-2.599,-2.6031,-2.6031,-2.6049,-2.6081,-2.6075,-2.5938,-2.5919,-2.59,-2.5881,-2.6085,-2.6085,-2.6219,-2.622,-2.6221]},{"header":{"parameterUnit":"m.s-1","parameterCategory":1,"la1":30.2991,"la2":30.254,"lo1":-89.0895,"lo2":-89.0444,"dy":0.0017,"dx":0.0017,"nx":28,"ny":28,"refTime":"2024-12-05T09:00:00:Z","depth":0,"parameterNumber":3,"parameterNumberName":"V-component_of_WINDS"},"data":[0,0,0,0,0,0,0,0,0,0,0,0,0,0,0,0,0,0,0,0,0,0,0,0,0,0,0,0,0,0,0,0,0,0,0,0,0,0,0,0,0,0,0,0,0,0,0,0,0,0,0,0,0,0,0,0,0,0,-5.9702,-5.9703,0,-5.9809,-5.981,-5.9812,-5.9727,-5.9723,-5.9719,-5.9716,-5.9822,-5.9828,-5.9834,0,0,0,0,0,0,0,0,0,0,0,0,0,-5.9417,-5.9422,-5.9701,-5.9703,-5.9704,-5.9809,-5.981,-5.9812,-5.9727,-5.9723,-5.9719,-5.9714,-5.982,-5.9827,-5.9834,0,0,0,0,0,0,0,0,0,0,0,0,0,-5.9534,-5.9424,-5.9701,-5.9675,-5.9673,-5.9809,-5.981,-5.9812,-5.9728,-5.9723,-5.9717,-5.9712,-5.9817,-5.9826,-5.9835,-6.0001,0,0,-5.9864,-5.9868,0,0,0,0,0,0,0,0,-5.9527,-5.9544,-5.9677,-5.9677,-5.9676,-5.9749,-5.9749,-5.9875,-5.973,-5.9707,-5.9716,-5.971,-5.9802,-5.9812,-5.9844,-6.0006,-6.001,-5.9864,-5.987,-5.9874,-5.9877,0,0,0,0,0,0,0,-5.9519,-5.9539,-5.9744,-5.9679,-5.9678,-5.9655,-5.9666,-5.9772,-5.9783,-5.9709,-5.9703,-5.9717,-5.98,-5.9835,-5.9846,-6.0012,-5.9864,-5.9872,-5.9878,-5.9882,-6.0313,-6.0318,0,0,0,0,0,0,-5.9515,-5.9533,-5.974,-5.9747,-5.9587,-5.9665,-5.9677,-5.9731,-5.9782,-5.9785,-5.9722,-5.9713,-5.9822,-5.9835,-5.9849,-6.0045,-5.9874,-5.9883,-5.9888,-6.0307,-6.0314,-6.032,0,0,0,0,0,0,-5.9509,-5.9534,-5.9736,-5.9639,-5.9663,-5.9676,-5.9737,-5.9736,-5.9771,-5.9792,-5.9793,-5.9756,-5.9818,-5.9836,-5.9964,-6.0047,-5.9887,-5.9895,-6.03,-6.0309,-6.0317,-6.0439,0,0,0,0,0,0,-5.9501,-5.9532,-5.9597,-5.9641,-5.9668,-5.9851,-5.9742,-5.9742,-5.9788,-5.9777,-5.9824,-5.9827,-5.9815,-5.995,-5.9973,-6.0057,-5.9903,-6.0292,-6.0304,-6.0314,-6.0428,-6.0451,-6.0471,0,0,0,0,0,-5.9491,-5.9627,-5.9601,-5.9626,-5.975,-5.9856,-5.9872,-5.9857,-5.9795,-5.9859,-5.9872,-5.9825,-6.0035,-5.9964,-5.9989,-6.0077,-6.0287,-6.0301,-6.0314,-6.0418,-6.0447,-6.0471,0,0,0,0,0,0,-5.9591,-5.9632,-5.9604,-5.9758,-5.9805,-5.9842,-5.9922,-5.9888,-5.9952,-5.994,-5.9917,-5.9929,-6.0063,-6.0082,-6.0003,-6.0239,-6.015,-6.0169,-6.0221,-6.0249,-6.027,-6.0262,-5.991,0,0,0,0,0,-5.9632,-5.9717,-5.9747,-5.9879,-5.9904,-5.991,-5.9956,-5.994,-5.9987,-6.0006,-6.0028,-6.0074,-6.015,-6.02,-6.0271,-6.043,-6.0438,-6.0503,-6.0524,-6.0542,-6.0558,-6.0642,-6.067,-6.0364,-6.0364,-6.0364,0,0,-5.9715,-5.9748,-5.9803,-5.99,-5.9935,-6.0021,-5.9927,-6.0023,-6.0086,-6.002,-6.0142,-6.016,-6.0209,-6.0353,-6.0417,-6.0373,-6.0645,-6.0559,-6.0573,-6.058,-6.0658,-6.0687,-6.0713,-6.0373,-6.0371,-6.037,0,0,-5.9912,-5.9946,-6.0059,-6.0096,-6.0149,-6.0151,-6.0179,-6.0221,-6.0231,-6.0354,-6.0305,-6.0379,-6.0511,-6.0547,-6.0583,-6.0791,-6.075,-6.0815,-6.0928,-6.101,-6.1034,-6.1055,-6.1128,-6.1155,-6.0831,-6.0832,-6.0832,0,-6.0008,-6.0139,-6.0122,-6.0222,-6.0265,-6.021,-6.0323,-6.0359,-6.0432,-6.0462,-6.0413,-6.0576,-6.0605,-6.0755,-6.0806,-6.0838,-6.0866,-6.081,-6.1032,-6.1053,-6.1073,-6.1142,-6.117,-6.0839,-6.0838,-6.0837,-6.0837,0,-6.0254,-6.0345,-6.043,-6.0504,-6.0557,-6.0663,-6.066,-6.0715,-6.0694,-6.0701,-6.0825,-6.0858,-6.0934,-6.0969,-6.095,-6.1116,-6.1087,-6.1036,-6.0946,-6.111,-6.1175,-6.1201,-6.085,-6.0847,-6.0845,-6.0843,0,0,-6.0518,-6.058,-6.0612,-6.0643,-6.0697,-6.0766,-6.0869,-6.0944,-6.0991,-6.1043,-6.1127,-6.1239,-6.1191,-6.1231,-6.1215,-6.1287,-6.1448,-6.1226,-6.1227,-6.1265,-6.1632,-6.167,-6.1702,-6.1421,-6.1426,-6.143,-6.1627,0,-6.0716,-6.0897,-6.0883,-6.1053,-6.1135,-6.1083,-6.1172,-6.1213,-6.1222,-6.1291,-6.1299,-6.1379,-6.131,-6.1334,-6.1403,-6.1414,-6.1521,-6.14,-6.1497,-6.1501,-6.1487,-6.1736,-6.1777,-6.1962,-6.1653,-6.1657,-6.166,0,-6.0972,-6.1034,-6.1212,-6.1252,-6.1286,-6.1367,-6.1434,-6.1502,-6.1546,-6.1547,-6.1592,-6.1564,-6.1664,-6.1573,-6.171,-6.1628,-6.1666,-6.1678,-6.1684,-6.1693,-6.159,-6.175,-6.202,-6.2048,-6.17,-6.1697,-6.1694,0,-6.1146,-6.1273,-6.1396,-6.1424,-6.1475,-6.1532,-6.1555,-6.1595,-6.1641,-6.1698,-6.1727,-6.1796,-6.1833,-6.1886,-6.1875,-6.181,-6.2015,-6.1923,-6.2017,-6.2017,-6.2062,-6.206,-6.2342,-6.2089,-6.2088,-6.2088,-6.2087,0,-6.1368,-6.1479,-6.1474,-6.1549,-6.1671,-6.1653,-6.1773,-6.1789,-6.1825,-6.19,-6.1859,-6.193,-6.1913,-6.1983,-6.1975,-6.2089,-6.2106,-6.2108,-6.2105,-6.2112,-6.2112,-6.2137,-6.2123,-6.2095,-6.2093,-6.2092,-6.2091,0,-6.1583,-6.1584,-6.1714,-6.1751,-6.1762,-6.185,-6.188,-6.195,-6.1955,-6.2051,-6.2072,-6.2079,-6.216,-6.2155,-6.2245,-6.224,-6.238,-6.2362,-6.2366,-6.2361,-6.2455,-6.2446,-6.2764,-6.2804,-6.2525,-6.2527,-6.253,0,-6.1725,-6.1809,-6.1854,-6.1903,-6.193,-6.2009,-6.2055,-6.204,-6.2089,-6.2146,-6.2209,-6.2286,-6.2346,-6.2477,-6.2489,-6.2557,-6.2539,-6.2646,-6.2549,-6.2553,-6.254,-6.2535,-6.2542,-6.2665,-6.2668,-6.2671,-6.2673,0,-6.1976,-6.1972,-6.2042,-6.2112,-6.2168,-6.2222,-6.2271,-6.2312,-6.2302,-6.2359,-6.2442,-6.2489,-6.2581,-6.2657,-6.2722,-6.2743,-6.2706,-6.2703,-6.2728,-6.2736,-6.2734,-6.2735,-6.2417,-6.2696,-6.2693,-6.2692,-6.269,-6.2689,-6.2158,-6.223,-6.2273,-6.2351,-6.2386,-6.2432,-6.25,-6.2513,-6.2582,-6.2657,-6.2643,-6.2735,-6.2775,-6.2859,-6.2886,-6.2956,-6.2918,-6.2955,-6.2964,-6.2973,-6.2983,-6.2724,-6.2968,-6.2967,-6.2967,-6.2966,-6.2966,0,-6.2406,-6.2431,-6.2503,-6.2574,-6.2634,-6.2595,-6.2646,-6.2699,-6.2782,-6.2823,-6.2884,-6.2977,-6.305,-6.3068,-6.3137,-6.319,-6.3174,-6.3209,-6.3204,-6.3209,-6.3014,-6.2985,-6.322,-6.322,-6.322,-6.322,-6.322,-6.322,-6.2543,-6.2661,-6.2662,-6.2797,-6.282,-6.2911,-6.2944,-6.2985,-6.3018,-6.3125,-6.3186,-6.3197,-6.3228,-6.33,-6.3364,-6.3367,-6.3394,-6.3435,-6.3431,-6.3249,-6.3223,-6.3199,-6.3171,-6.3441,-6.3442,-6.362,-6.3622,-6.3623]}]]